METAR LSZS 271950Z AUTO 21001KT CAVOK M05/M05 Q1016 REFZDZ=
Diese Daten sind ohne Gewähr und dürfen nicht für die Flugvorbereitung verwendet werden.
Information contained in this website shall not be used for flight operation purposes.